Year,Month,Day,Hour,Minute,Value (Times are PST for temperature in C)
2013,04,26,00,00,9.20
2013,04,26,00,01,9.10
2013,04,26,00,02,9.10
2013,04,26,00,03,9.00
2013,04,26,00,04,8.90
2013,04,26,00,05,8.90
2013,04,26,00,06,8.80
2013,04,26,00,07,8.80
2013,04,26,00,08,8.80
2013,04,26,00,09,8.70
2013,04,26,00,10,8.70
2013,04,26,00,11,8.70
2013,04,26,00,12,8.60
2013,04,26,00,13,8.60
2013,04,26,00,14,8.60
2013,04,26,00,15,8.50
2013,04,26,00,16,8.50
2013,04,26,00,17,8.40
2013,04,26,00,18,8.40
2013,04,26,00,19,8.40
2013,04,26,00,20,8.40
2013,04,26,00,21,8.30
2013,04,26,00,22,8.30
2013,04,26,00,23,8.40
2013,04,26,00,24,8.40
2013,04,26,00,25,8.40
2013,04,26,00,26,8.50
2013,04,26,00,27,8.50
2013,04,26,00,28,8.60
2013,04,26,00,29,8.70
2013,04,26,00,30,8.70
2013,04,26,00,31,8.80
2013,04,26,00,32,8.80
2013,04,26,00,33,8.80
2013,04,26,00,34,8.90
2013,04,26,00,35,8.90
2013,04,26,00,36,8.90
2013,04,26,00,37,9.00
2013,04,26,00,38,9.00
2013,04,26,00,39,9.00
2013,04,26,00,40,9.00
2013,04,26,00,41,8.90
2013,04,26,00,42,8.90
2013,04,26,00,43,8.90
2013,04,26,00,44,8.90
2013,04,26,00,45,8.80
2013,04,26,00,46,8.80
2013,04,26,00,47,8.80
2013,04,26,00,48,8.70
2013,04,26,00,49,8.70
2013,04,26,00,50,8.60
2013,04,26,00,51,8.60
2013,04,26,00,52,8.50
2013,04,26,00,53,8.50
2013,04,26,00,54,8.40
2013,04,26,00,55,8.40
2013,04,26,00,56,8.30
2013,04,26,00,57,8.30
2013,04,26,00,58,8.30
2013,04,26,00,59,8.20
2013,04,26,01,00,8.20
2013,04,26,01,01,8.20
2013,04,26,01,02,8.20
2013,04,26,01,03,8.20
2013,04,26,01,04,8.20
2013,04,26,01,05,8.10
2013,04,26,01,06,8.10
2013,04,26,01,07,8.10
2013,04,26,01,08,8.10
2013,04,26,01,09,8.00
2013,04,26,01,10,8.00
2013,04,26,01,11,7.90
2013,04,26,01,12,7.90
2013,04,26,01,13,7.80
2013,04,26,01,14,7.80
2013,04,26,01,15,7.70
2013,04,26,01,16,7.70
2013,04,26,01,17,7.70
2013,04,26,01,18,7.60
2013,04,26,01,19,7.60
2013,04,26,01,20,7.60
2013,04,26,01,21,7.50
2013,04,26,01,22,7.40
2013,04,26,01,23,7.40
2013,04,26,01,24,7.40
2013,04,26,01,25,7.40
2013,04,26,01,26,7.30
2013,04,26,01,27,7.30
2013,04,26,01,28,7.30
2013,04,26,01,29,7.30
2013,04,26,01,30,7.20
2013,04,26,01,31,7.20
2013,04,26,01,32,7.20
2013,04,26,01,33,7.20
2013,04,26,01,34,7.20
2013,04,26,01,35,7.20
2013,04,26,01,36,7.20
2013,04,26,01,37,7.20
2013,04,26,01,38,7.20
2013,04,26,01,39,7.20
2013,04,26,01,40,7.20
2013,04,26,01,41,7.20
2013,04,26,01,42,7.20
2013,04,26,01,43,7.30
2013,04,26,01,44,7.30
2013,04,26,01,45,7.40
2013,04,26,01,46,7.40
2013,04,26,01,47,7.50
2013,04,26,01,48,7.60
2013,04,26,01,49,7.60
2013,04,26,01,50,7.70
2013,04,26,01,51,7.70
2013,04,26,01,52,7.80
2013,04,26,01,53,7.80
2013,04,26,01,54,7.80
2013,04,26,01,55,7.80
2013,04,26,01,56,7.80
2013,04,26,01,57,7.80
2013,04,26,01,58,7.80
2013,04,26,01,59,7.80
2013,04,26,02,00,7.80
2013,04,26,02,01,7.80
2013,04,26,02,02,7.80
2013,04,26,02,03,7.70
2013,04,26,02,04,7.70
2013,04,26,02,05,7.70
2013,04,26,02,06,7.70
2013,04,26,02,07,7.60
2013,04,26,02,08,7.60
2013,04,26,02,09,7.60
2013,04,26,02,10,7.50
2013,04,26,02,11,7.50
2013,04,26,02,12,7.50
2013,04,26,02,13,7.40
2013,04,26,02,14,7.40
2013,04,26,02,15,7.40
2013,04,26,02,16,7.30
2013,04,26,02,17,7.30
2013,04,26,02,18,7.30
2013,04,26,02,19,7.30
2013,04,26,02,20,7.30
2013,04,26,02,21,7.40
2013,04,26,02,22,7.40
2013,04,26,02,23,7.40
2013,04,26,02,24,7.40
2013,04,26,02,25,7.40
2013,04,26,02,26,7.30
2013,04,26,02,27,7.30
2013,04,26,02,28,7.30
2013,04,26,02,29,7.30
2013,04,26,02,30,7.20
2013,04,26,02,31,7.20
2013,04,26,02,32,7.20
2013,04,26,02,33,7.20
2013,04,26,02,34,7.20
2013,04,26,02,35,7.20
2013,04,26,02,36,7.30
2013,04,26,02,37,7.30
2013,04,26,02,38,7.30
2013,04,26,02,39,7.30
2013,04,26,02,40,7.30
2013,04,26,02,41,7.40
2013,04,26,02,42,7.50
2013,04,26,02,43,7.50
2013,04,26,02,44,7.60
2013,04,26,02,45,7.60
2013,04,26,02,46,7.60
2013,04,26,02,47,7.60
2013,04,26,02,48,7.50
2013,04,26,02,49,7.50
2013,04,26,02,50,7.50
2013,04,26,02,51,7.50
2013,04,26,02,52,7.50
2013,04,26,02,53,7.40
2013,04,26,02,54,7.40
2013,04,26,02,55,7.40
2013,04,26,02,56,7.40
2013,04,26,02,57,7.40
2013,04,26,02,58,7.50
2013,04,26,02,59,7.50
2013,04,26,03,00,7.50
2013,04,26,03,01,7.50
2013,04,26,03,02,7.50
2013,04,26,03,03,7.50
2013,04,26,03,04,7.50
2013,04,26,03,05,7.50
2013,04,26,03,06,7.50
2013,04,26,03,07,7.50
2013,04,26,03,08,7.50
2013,04,26,03,09,7.50
2013,04,26,03,10,7.50
2013,04,26,03,11,7.60
2013,04,26,03,12,7.60
2013,04,26,03,13,7.60
2013,04,26,03,14,7.60
2013,04,26,03,15,7.60
2013,04,26,03,16,7.60
2013,04,26,03,17,7.60
2013,04,26,03,18,7.60
2013,04,26,03,19,7.60
2013,04,26,03,20,7.50
2013,04,26,03,21,7.50
2013,04,26,03,22,7.50
2013,04,26,03,23,7.50
2013,04,26,03,24,7.50
2013,04,26,03,25,7.50
2013,04,26,03,26,7.50
2013,04,26,03,27,7.60
2013,04,26,03,28,7.60
2013,04,26,03,29,7.60
2013,04,26,03,30,7.60
2013,04,26,03,31,7.60
2013,04,26,03,32,7.50
2013,04,26,03,33,7.50
2013,04,26,03,34,7.50
2013,04,26,03,35,7.40
2013,04,26,03,36,7.40
2013,04,26,03,37,7.40
2013,04,26,03,38,7.40
2013,04,26,03,39,7.30
2013,04,26,03,40,7.30
2013,04,26,03,41,7.20
2013,04,26,03,42,7.20
2013,04,26,03,43,7.10
2013,04,26,03,44,7.00
2013,04,26,03,45,6.90
2013,04,26,03,46,6.90
2013,04,26,03,47,6.80
2013,04,26,03,48,6.80
2013,04,26,03,49,6.70
2013,04,26,03,50,6.70
2013,04,26,03,51,6.70
2013,04,26,03,52,6.60
2013,04,26,03,53,6.60
2013,04,26,03,54,6.60
2013,04,26,03,55,6.50
2013,04,26,03,56,6.50
2013,04,26,03,57,6.40
2013,04,26,03,58,6.40
2013,04,26,03,59,6.30
2013,04,26,04,00,6.30
2013,04,26,04,01,6.30
2013,04,26,04,02,6.20
2013,04,26,04,03,6.20
2013,04,26,04,04,6.20
2013,04,26,04,05,6.10
2013,04,26,04,06,6.10
2013,04,26,04,07,6.10
2013,04,26,04,08,6.10
2013,04,26,04,09,6.00
2013,04,26,04,10,6.00
2013,04,26,04,11,5.90
2013,04,26,04,12,5.90
2013,04,26,04,13,5.90
2013,04,26,04,14,5.90
2013,04,26,04,15,5.80
2013,04,26,04,16,5.80
2013,04,26,04,17,5.80
2013,04,26,04,18,5.80
2013,04,26,04,19,5.70
2013,04,26,04,20,5.70
2013,04,26,04,21,5.70
2013,04,26,04,22,5.70
2013,04,26,04,23,5.60
2013,04,26,04,24,5.60
2013,04,26,04,25,5.50
2013,04,26,04,26,5.50
2013,04,26,04,27,5.50
2013,04,26,04,28,5.40
2013,04,26,04,29,5.40
2013,04,26,04,30,5.40
2013,04,26,04,31,5.40
2013,04,26,04,32,5.40
2013,04,26,04,33,5.40
2013,04,26,04,34,5.30
2013,04,26,04,35,5.30
2013,04,26,04,36,5.30
2013,04,26,04,37,5.30
2013,04,26,04,38,5.30
2013,04,26,04,39,5.30
2013,04,26,04,40,5.30
2013,04,26,04,41,5.30
2013,04,26,04,42,5.30
2013,04,26,04,43,5.20
2013,04,26,04,44,5.20
2013,04,26,04,45,5.20
2013,04,26,04,46,5.20
2013,04,26,04,47,5.20
2013,04,26,04,48,5.10
2013,04,26,04,49,5.10
2013,04,26,04,50,5.10
2013,04,26,04,51,5.10
2013,04,26,04,52,5.10
2013,04,26,04,53,5.10
2013,04,26,04,54,5.10
2013,04,26,04,55,5.10
2013,04,26,04,56,5.10
2013,04,26,04,57,5.10
2013,04,26,04,58,5.10
2013,04,26,04,59,5.10
2013,04,26,05,00,5.10
2013,04,26,05,01,5.00
2013,04,26,05,02,5.00
2013,04,26,05,03,5.00
2013,04,26,05,04,4.90
2013,04,26,05,05,4.90
2013,04,26,05,06,4.90
2013,04,26,05,07,4.80
2013,04,26,05,08,4.80
2013,04,26,05,09,4.80
2013,04,26,05,10,4.80
2013,04,26,05,11,4.80
2013,04,26,05,12,4.80
2013,04,26,05,13,4.80
2013,04,26,05,14,4.70
2013,04,26,05,15,4.70
2013,04,26,05,16,4.70
2013,04,26,05,17,4.70
2013,04,26,05,18,4.70
2013,04,26,05,19,4.70
2013,04,26,05,20,4.70
2013,04,26,05,21,4.70
2013,04,26,05,22,4.70
2013,04,26,05,23,4.70
2013,04,26,05,24,4.70
2013,04,26,05,25,4.70
2013,04,26,05,26,4.70
2013,04,26,05,27,4.70
2013,04,26,05,28,4.70
2013,04,26,05,29,4.70
2013,04,26,05,30,4.70
2013,04,26,05,31,4.70
2013,04,26,05,32,4.70
2013,04,26,05,33,4.70
2013,04,26,05,34,4.70
2013,04,26,05,35,4.60
2013,04,26,05,36,4.60
2013,04,26,05,37,4.60
2013,04,26,05,38,4.60
2013,04,26,05,39,4.60
2013,04,26,05,40,4.50
2013,04,26,05,41,4.50
2013,04,26,05,42,4.50
2013,04,26,05,43,4.50
2013,04,26,05,44,4.50
2013,04,26,05,45,4.50
2013,04,26,05,46,4.50
2013,04,26,05,47,4.50
2013,04,26,05,48,4.40
2013,04,26,05,49,4.40
2013,04,26,05,50,4.40
2013,04,26,05,51,4.40
2013,04,26,05,52,4.40
2013,04,26,05,53,4.40
2013,04,26,05,54,4.40
2013,04,26,05,55,4.40
2013,04,26,05,56,4.30
2013,04,26,05,57,4.30
2013,04,26,05,58,4.30
2013,04,26,05,59,4.30
2013,04,26,06,00,4.30
2013,04,26,06,01,4.30
2013,04,26,06,02,4.30
2013,04,26,06,03,4.30
2013,04,26,06,04,4.30
2013,04,26,06,05,4.30
2013,04,26,06,06,4.30
2013,04,26,06,07,4.30
2013,04,26,06,08,4.30
2013,04,26,06,09,4.30
2013,04,26,06,10,4.30
2013,04,26,06,11,4.30
2013,04,26,06,12,4.30
2013,04,26,06,13,4.30
2013,04,26,06,14,4.20
2013,04,26,06,15,4.20
2013,04,26,06,16,4.20
2013,04,26,06,17,4.20
2013,04,26,06,18,4.20
2013,04,26,06,19,4.20
2013,04,26,06,20,4.20
2013,04,26,06,21,4.20
2013,04,26,06,22,4.20
2013,04,26,06,23,4.20
2013,04,26,06,24,4.20
2013,04,26,06,25,4.20
2013,04,26,06,26,4.20
2013,04,26,06,27,4.20
2013,04,26,06,28,4.20
2013,04,26,06,29,4.20
2013,04,26,06,30,4.20
2013,04,26,06,31,4.20
2013,04,26,06,32,4.20
2013,04,26,06,33,4.20
2013,04,26,06,34,4.20
2013,04,26,06,35,4.20
2013,04,26,06,36,4.20
2013,04,26,06,37,4.20
2013,04,26,06,38,4.20
2013,04,26,06,39,4.20
2013,04,26,06,40,4.30
2013,04,26,06,41,4.30
2013,04,26,06,42,4.30
2013,04,26,06,43,4.30
2013,04,26,06,44,4.20
2013,04,26,06,45,4.20
2013,04,26,06,46,4.20
2013,04,26,06,47,4.20
2013,04,26,06,48,4.20
2013,04,26,06,49,4.20
2013,04,26,06,50,4.20
2013,04,26,06,51,4.20
2013,04,26,06,52,4.20
2013,04,26,06,53,4.20
2013,04,26,06,54,4.20
2013,04,26,06,55,4.20
2013,04,26,06,56,4.30
2013,04,26,06,57,4.30
2013,04,26,06,58,4.30
2013,04,26,06,59,4.30
2013,04,26,07,00,4.30
2013,04,26,07,01,4.30
2013,04,26,07,02,4.30
2013,04,26,07,03,4.40
2013,04,26,07,04,4.40
2013,04,26,07,05,4.40
2013,04,26,07,06,4.50
2013,04,26,07,07,4.50
2013,04,26,07,08,4.60
2013,04,26,07,09,4.70
2013,04,26,07,10,4.70
2013,04,26,07,11,4.80
2013,04,26,07,12,4.90
2013,04,26,07,13,5.00
2013,04,26,07,14,5.10
2013,04,26,07,15,5.20
2013,04,26,07,16,5.30
2013,04,26,07,17,5.40
2013,04,26,07,18,5.40
2013,04,26,07,19,5.50
2013,04,26,07,20,5.60
2013,04,26,07,21,5.60
2013,04,26,07,22,5.70
2013,04,26,07,23,5.70
2013,04,26,07,24,5.80
2013,04,26,07,25,5.90
2013,04,26,07,26,6.00
2013,04,26,07,27,6.10
2013,04,26,07,28,6.20
2013,04,26,07,29,6.30
2013,04,26,07,30,6.40
2013,04,26,07,31,6.50
2013,04,26,07,32,6.60
2013,04,26,07,33,6.70
2013,04,26,07,34,6.80
2013,04,26,07,35,6.90
2013,04,26,07,36,7.00
2013,04,26,07,37,7.10
2013,04,26,07,38,7.20
2013,04,26,07,39,7.20
2013,04,26,07,40,7.40
2013,04,26,07,41,7.50
2013,04,26,07,42,7.70
2013,04,26,07,43,7.80
2013,04,26,07,44,7.90
2013,04,26,07,45,8.00
2013,04,26,07,46,8.10
2013,04,26,07,47,8.20
2013,04,26,07,48,8.20
2013,04,26,07,49,8.30
2013,04,26,07,50,8.40
2013,04,26,07,51,8.50
2013,04,26,07,52,8.60
2013,04,26,07,53,8.60
2013,04,26,07,54,8.70
2013,04,26,07,55,8.80
2013,04,26,07,56,8.90
2013,04,26,07,57,9.00
2013,04,26,07,58,9.00
2013,04,26,07,59,9.10
2013,04,26,08,00,9.20
2013,04,26,08,01,9.30
2013,04,26,08,02,9.40
2013,04,26,08,03,9.50
2013,04,26,08,04,9.60
2013,04,26,08,05,9.60
2013,04,26,08,06,9.70
2013,04,26,08,07,9.80
2013,04,26,08,08,9.90
2013,04,26,08,09,10.00
2013,04,26,08,10,10.10
2013,04,26,08,11,10.10
2013,04,26,08,12,10.10
2013,04,26,08,13,10.20
2013,04,26,08,14,10.20
2013,04,26,08,15,10.20
2013,04,26,08,16,10.30
2013,04,26,08,17,10.40
2013,04,26,08,18,10.40
2013,04,26,08,19,10.50
2013,04,26,08,20,10.60
2013,04,26,08,21,10.70
2013,04,26,08,22,10.80
2013,04,26,08,23,10.80
2013,04,26,08,24,10.90
2013,04,26,08,25,11.00
2013,04,26,08,26,11.10
2013,04,26,08,27,11.10
2013,04,26,08,28,11.20
2013,04,26,08,29,11.30
2013,04,26,08,30,11.40
2013,04,26,08,31,11.50
2013,04,26,08,32,11.50
2013,04,26,08,33,11.60
2013,04,26,08,34,11.70
2013,04,26,08,35,11.70
2013,04,26,08,36,11.80
2013,04,26,08,37,11.80
2013,04,26,08,38,11.80
2013,04,26,08,39,11.80
2013,04,26,08,40,11.80
2013,04,26,08,41,11.90
2013,04,26,08,42,11.90
2013,04,26,08,43,12.00
2013,04,26,08,44,12.00
2013,04,26,08,45,12.00
2013,04,26,08,46,12.10
2013,04,26,08,47,12.10
2013,04,26,08,48,12.10
2013,04,26,08,49,12.20
2013,04,26,08,50,12.20
2013,04,26,08,51,12.30
2013,04,26,08,52,12.40
2013,04,26,08,53,12.50
2013,04,26,08,54,12.50
2013,04,26,08,55,12.60
2013,04,26,08,56,12.70
2013,04,26,08,57,12.80
2013,04,26,08,58,12.80
2013,04,26,08,59,12.90
2013,04,26,09,00,12.90
2013,04,26,09,01,13.00
2013,04,26,09,02,13.20
2013,04,26,09,03,13.30
2013,04,26,09,04,13.40
2013,04,26,09,05,13.50
2013,04,26,09,06,13.60
2013,04,26,09,07,13.60
2013,04,26,09,08,13.70
2013,04,26,09,09,13.80
2013,04,26,09,10,13.90
2013,04,26,09,11,14.00
2013,04,26,09,12,14.00
2013,04,26,09,13,14.10
2013,04,26,09,14,14.20
2013,04,26,09,15,14.30
2013,04,26,09,16,14.40
2013,04,26,09,17,14.50
2013,04,26,09,18,14.60
2013,04,26,09,19,14.70
2013,04,26,09,20,14.80
2013,04,26,09,21,14.80
2013,04,26,09,22,14.90
2013,04,26,09,23,14.90
2013,04,26,09,24,14.90
2013,04,26,09,25,14.90
2013,04,26,09,26,14.80
2013,04,26,09,27,14.80
2013,04,26,09,28,14.70
2013,04,26,09,29,14.60
2013,04,26,09,30,14.50
2013,04,26,09,31,14.20
2013,04,26,09,32,14.00
2013,04,26,09,33,13.90
2013,04,26,09,34,13.80
2013,04,26,09,35,13.70
2013,04,26,09,36,13.70
2013,04,26,09,37,13.60
2013,04,26,09,38,13.60
2013,04,26,09,39,13.50
2013,04,26,09,40,13.40
2013,04,26,09,41,13.30
2013,04,26,09,42,13.30
2013,04,26,09,43,13.30
2013,04,26,09,44,13.30
2013,04,26,09,45,13.30
2013,04,26,09,46,13.30
2013,04,26,09,47,13.30
2013,04,26,09,48,13.30
2013,04,26,09,49,13.30
2013,04,26,09,50,13.30
2013,04,26,09,51,13.40
2013,04,26,09,52,13.40
2013,04,26,09,53,13.40
2013,04,26,09,54,13.50
2013,04,26,09,55,13.50
2013,04,26,09,56,13.50
2013,04,26,09,57,13.50
2013,04,26,09,58,13.60
2013,04,26,09,59,13.60
2013,04,26,10,00,13.60
2013,04,26,10,01,13.70
2013,04,26,10,02,13.70
2013,04,26,10,03,13.80
2013,04,26,10,04,13.90
2013,04,26,10,05,13.90
2013,04,26,10,06,14.00
2013,04,26,10,07,14.00
2013,04,26,10,08,14.00
2013,04,26,10,09,14.10
2013,04,26,10,10,14.20
2013,04,26,10,11,14.40
2013,04,26,10,12,14.70
2013,04,26,10,13,15.00
2013,04,26,10,14,15.10
2013,04,26,10,15,15.20
2013,04,26,10,16,15.40
2013,04,26,10,17,15.50
2013,04,26,10,18,15.50
2013,04,26,10,19,15.50
2013,04,26,10,20,15.50
2013,04,26,10,21,15.60
2013,04,26,10,22,15.60
2013,04,26,10,23,15.50
2013,04,26,10,24,15.60
2013,04,26,10,25,15.50
2013,04,26,10,26,15.50
2013,04,26,10,27,15.50
2013,04,26,10,28,15.50
2013,04,26,10,29,15.50
2013,04,26,10,30,15.60
2013,04,26,10,31,15.70
2013,04,26,10,32,15.80
2013,04,26,10,33,15.90
2013,04,26,10,34,15.80
2013,04,26,10,35,15.80
2013,04,26,10,36,15.80
2013,04,26,10,37,15.90
2013,04,26,10,38,16.00
2013,04,26,10,39,16.10
2013,04,26,10,40,16.20
2013,04,26,10,41,16.30
2013,04,26,10,42,16.40
2013,04,26,10,43,16.50
2013,04,26,10,44,16.50
2013,04,26,10,45,16.60
2013,04,26,10,46,16.60
2013,04,26,10,47,16.60
2013,04,26,10,48,16.70
2013,04,26,10,49,16.70
2013,04,26,10,50,16.70
2013,04,26,10,51,16.80
2013,04,26,10,52,16.70
2013,04,26,10,53,16.70
2013,04,26,10,54,16.70
2013,04,26,10,55,16.70
2013,04,26,10,56,16.50
2013,04,26,10,57,16.40
2013,04,26,10,58,16.30
2013,04,26,10,59,16.30
2013,04,26,11,00,16.30
2013,04,26,11,01,16.30
2013,04,26,11,02,16.30
2013,04,26,11,03,16.30
2013,04,26,11,04,16.30
2013,04,26,11,05,16.40
2013,04,26,11,06,16.50
2013,04,26,11,07,16.60
2013,04,26,11,08,16.70
2013,04,26,11,09,16.80
2013,04,26,11,10,16.80
2013,04,26,11,11,16.80
2013,04,26,11,12,16.80
2013,04,26,11,13,16.80
2013,04,26,11,14,16.90
2013,04,26,11,15,16.90
2013,04,26,11,16,16.80
2013,04,26,11,17,16.80
2013,04,26,11,18,16.80
2013,04,26,11,19,16.70
2013,04,26,11,20,16.60
2013,04,26,11,21,16.60
2013,04,26,11,22,16.60
2013,04,26,11,23,16.70
2013,04,26,11,24,16.70
2013,04,26,11,25,16.60
2013,04,26,11,26,16.50
2013,04,26,11,27,16.50
2013,04,26,11,28,16.50
2013,04,26,11,29,16.40
2013,04,26,11,30,16.40
2013,04,26,11,31,16.50
2013,04,26,11,32,16.50
2013,04,26,11,33,16.60
2013,04,26,11,34,16.50
2013,04,26,11,35,16.50
2013,04,26,11,36,16.50
2013,04,26,11,37,16.40
2013,04,26,11,38,16.40
2013,04,26,11,39,16.40
2013,04,26,11,40,16.40
2013,04,26,11,41,16.40
2013,04,26,11,42,16.40
2013,04,26,11,43,16.50
2013,04,26,11,44,16.50
2013,04,26,11,45,16.50
2013,04,26,11,46,16.60
2013,04,26,11,47,16.60
2013,04,26,11,48,16.70
2013,04,26,11,49,16.70
2013,04,26,11,50,16.70
2013,04,26,11,51,16.70
2013,04,26,11,52,16.50
2013,04,26,11,53,16.40
2013,04,26,11,54,16.50
2013,04,26,11,55,16.50
2013,04,26,11,56,16.60
2013,04,26,11,57,16.70
2013,04,26,11,58,16.70
2013,04,26,11,59,16.80
2013,04,26,12,00,16.70
2013,04,26,12,01,16.70
2013,04,26,12,02,16.50
2013,04,26,12,03,16.50
2013,04,26,12,04,16.40
2013,04,26,12,05,16.40
2013,04,26,12,06,16.30
2013,04,26,12,07,16.30
2013,04,26,12,08,16.30
2013,04,26,12,09,16.30
2013,04,26,12,10,16.40
2013,04,26,12,11,16.40
2013,04,26,12,12,16.50
2013,04,26,12,13,16.70
2013,04,26,12,14,16.80
2013,04,26,12,15,16.90
2013,04,26,12,16,17.00
2013,04,26,12,17,17.00
2013,04,26,12,18,17.10
2013,04,26,12,19,17.30
2013,04,26,12,20,17.30
2013,04,26,12,21,17.10
2013,04,26,12,22,17.10
2013,04,26,12,23,17.30
2013,04,26,12,24,17.30
2013,04,26,12,25,17.10
2013,04,26,12,26,16.80
2013,04,26,12,27,16.60
2013,04,26,12,28,16.40
2013,04,26,12,29,16.30
2013,04,26,12,30,16.30
2013,04,26,12,31,16.20
2013,04,26,12,32,16.30
2013,04,26,12,33,16.30
2013,04,26,12,34,16.30
2013,04,26,12,35,16.30
2013,04,26,12,36,16.40
2013,04,26,12,37,16.40
2013,04,26,12,38,16.50
2013,04,26,12,39,16.50
2013,04,26,12,40,16.50
2013,04,26,12,41,16.60
2013,04,26,12,42,16.50
2013,04,26,12,43,16.60
2013,04,26,12,44,16.60
2013,04,26,12,45,16.60
2013,04,26,12,46,16.60
2013,04,26,12,47,16.60
2013,04,26,12,48,16.60
2013,04,26,12,49,16.70
2013,04,26,12,50,16.80
2013,04,26,12,51,17.00
2013,04,26,12,52,17.00
2013,04,26,12,53,17.10
2013,04,26,12,54,17.20
2013,04,26,12,55,17.30
2013,04,26,12,56,17.50
2013,04,26,12,57,17.60
2013,04,26,12,58,17.90
2013,04,26,12,59,18.10
2013,04,26,13,00,18.30
2013,04,26,13,01,18.50
2013,04,26,13,02,18.60
2013,04,26,13,03,18.70
2013,04,26,13,04,18.80
2013,04,26,13,05,18.90
2013,04,26,13,06,18.90
2013,04,26,13,07,19.00
2013,04,26,13,08,19.00
2013,04,26,13,09,19.00
2013,04,26,13,10,19.00
2013,04,26,13,11,18.90
2013,04,26,13,12,18.90
2013,04,26,13,13,18.90
2013,04,26,13,14,19.00
2013,04,26,13,15,19.10
2013,04,26,13,16,19.10
2013,04,26,13,17,19.20
2013,04,26,13,18,19.20
2013,04,26,13,19,19.30
2013,04,26,13,20,19.30
2013,04,26,13,21,19.40
2013,04,26,13,22,19.40
2013,04,26,13,23,19.40
2013,04,26,13,24,19.40
2013,04,26,13,25,19.40
2013,04,26,13,26,19.50
2013,04,26,13,27,19.50
2013,04,26,13,28,19.60
2013,04,26,13,29,19.60
2013,04,26,13,30,19.60
2013,04,26,13,31,19.70
2013,04,26,13,32,19.60
2013,04,26,13,33,19.60
2013,04,26,13,34,19.60
2013,04,26,13,35,19.70
2013,04,26,13,36,19.70
2013,04,26,13,37,19.70
2013,04,26,13,38,19.70
2013,04,26,13,39,19.70
2013,04,26,13,40,19.70
2013,04,26,13,41,19.80
2013,04,26,13,42,19.80
2013,04,26,13,43,19.80
2013,04,26,13,44,19.80
2013,04,26,13,45,19.80
2013,04,26,13,46,19.80
2013,04,26,13,47,19.80
2013,04,26,13,48,19.70
2013,04,26,13,49,19.70
2013,04,26,13,50,19.70
2013,04,26,13,51,19.70
2013,04,26,13,52,19.70
2013,04,26,13,53,19.60
2013,04,26,13,54,19.60
2013,04,26,13,55,19.70
2013,04,26,13,56,19.70
2013,04,26,13,57,19.70
2013,04,26,13,58,19.70
2013,04,26,13,59,19.70
2013,04,26,14,00,19.70
2013,04,26,14,01,19.80
2013,04,26,14,02,19.80
2013,04,26,14,03,19.90
2013,04,26,14,04,19.90
2013,04,26,14,05,19.90
2013,04,26,14,06,20.00
2013,04,26,14,07,20.00
2013,04,26,14,08,20.00
2013,04,26,14,09,20.10
2013,04,26,14,10,20.10
2013,04,26,14,11,20.20
2013,04,26,14,12,20.30
2013,04,26,14,13,20.30
2013,04,26,14,14,20.20
2013,04,26,14,15,20.10
2013,04,26,14,16,20.10
2013,04,26,14,17,20.10
2013,04,26,14,18,20.20
2013,04,26,14,19,20.20
2013,04,26,14,20,20.20
2013,04,26,14,21,20.20
2013,04,26,14,22,20.10
2013,04,26,14,23,20.10
2013,04,26,14,24,20.00
2013,04,26,14,25,20.00
2013,04,26,14,26,19.90
2013,04,26,14,27,19.80
2013,04,26,14,28,19.70
2013,04,26,14,29,19.60
2013,04,26,14,30,19.60
2013,04,26,14,31,19.40
2013,04,26,14,32,19.40
2013,04,26,14,33,19.40
2013,04,26,14,34,19.40
2013,04,26,14,35,19.40
2013,04,26,14,36,19.30
2013,04,26,14,37,19.30
2013,04,26,14,38,19.30
2013,04,26,14,39,19.30
2013,04,26,14,40,19.20
2013,04,26,14,41,19.20
2013,04,26,14,42,19.20
2013,04,26,14,43,19.20
2013,04,26,14,44,19.20
2013,04,26,14,45,19.20
2013,04,26,14,46,19.20
2013,04,26,14,47,19.20
2013,04,26,14,48,19.20
2013,04,26,14,49,19.20
2013,04,26,14,50,19.20
2013,04,26,14,51,19.20
2013,04,26,14,52,19.30
2013,04,26,14,53,19.30
2013,04,26,14,54,19.30
2013,04,26,14,55,19.40
2013,04,26,14,56,19.50
2013,04,26,14,57,19.60
2013,04,26,14,58,19.70
2013,04,26,14,59,19.70
2013,04,26,15,00,19.70
2013,04,26,15,01,19.60
2013,04,26,15,02,19.60
2013,04,26,15,03,19.60
2013,04,26,15,04,19.40
2013,04,26,15,05,19.50
2013,04,26,15,06,19.50
2013,04,26,15,07,19.60
2013,04,26,15,08,19.70
2013,04,26,15,09,19.80
2013,04,26,15,10,20.00
2013,04,26,15,11,20.10
2013,04,26,15,12,20.30
2013,04,26,15,13,20.40
2013,04,26,15,14,20.50
2013,04,26,15,15,20.60
2013,04,26,15,16,20.70
2013,04,26,15,17,20.70
2013,04,26,15,18,20.60
2013,04,26,15,19,20.50
2013,04,26,15,20,20.40
2013,04,26,15,21,20.30
2013,04,26,15,22,20.30
2013,04,26,15,23,20.30
2013,04,26,15,24,20.40
2013,04,26,15,25,20.40
2013,04,26,15,26,20.40
2013,04,26,15,27,20.40
2013,04,26,15,28,20.30
2013,04,26,15,29,20.30
2013,04,26,15,30,20.20
2013,04,26,15,31,20.20
2013,04,26,15,32,20.20
2013,04,26,15,33,20.20
2013,04,26,15,34,20.20
2013,04,26,15,35,20.30
2013,04,26,15,36,20.40
2013,04,26,15,37,20.50
2013,04,26,15,38,20.60
2013,04,26,15,39,20.70
2013,04,26,15,40,20.80
2013,04,26,15,41,20.80
2013,04,26,15,42,20.70
2013,04,26,15,43,20.70
2013,04,26,15,44,20.80
2013,04,26,15,45,20.80
2013,04,26,15,46,20.80
2013,04,26,15,47,20.80
2013,04,26,15,48,20.80
2013,04,26,15,49,20.80
2013,04,26,15,50,20.90
2013,04,26,15,51,20.80
2013,04,26,15,52,20.80
2013,04,26,15,53,20.70
2013,04,26,15,54,20.60
2013,04,26,15,55,20.60
2013,04,26,15,56,20.60
2013,04,26,15,57,20.60
2013,04,26,15,58,20.50
2013,04,26,15,59,20.50
2013,04,26,16,00,20.50
2013,04,26,16,01,20.40
2013,04,26,16,02,20.50
2013,04,26,16,03,20.50
2013,04,26,16,04,20.40
2013,04,26,16,05,20.40
2013,04,26,16,06,20.40
2013,04,26,16,07,20.40
2013,04,26,16,08,20.50
2013,04,26,16,09,20.50
2013,04,26,16,10,20.60
2013,04,26,16,11,20.70
2013,04,26,16,12,20.80
2013,04,26,16,13,20.90
2013,04,26,16,14,20.90
2013,04,26,16,15,20.90
2013,04,26,16,16,20.90
2013,04,26,16,17,20.90
2013,04,26,16,18,20.80
2013,04,26,16,19,20.80
2013,04,26,16,20,20.80
2013,04,26,16,21,20.80
2013,04,26,16,22,20.80
2013,04,26,16,23,20.80
2013,04,26,16,24,20.80
2013,04,26,16,25,20.60
2013,04,26,16,26,20.40
2013,04,26,16,27,20.40
2013,04,26,16,28,20.30
2013,04,26,16,29,20.30
2013,04,26,16,30,20.20
2013,04,26,16,31,20.20
2013,04,26,16,32,20.20
2013,04,26,16,33,20.10
2013,04,26,16,34,20.10
2013,04,26,16,35,20.10
2013,04,26,16,36,20.10
2013,04,26,16,37,20.20
2013,04,26,16,38,20.20
2013,04,26,16,39,20.30
2013,04,26,16,40,20.30
2013,04,26,16,41,20.30
2013,04,26,16,42,20.30
2013,04,26,16,43,20.40
2013,04,26,16,44,20.40
2013,04,26,16,45,20.40
2013,04,26,16,46,20.40
2013,04,26,16,47,20.30
2013,04,26,16,48,20.30
2013,04,26,16,49,20.20
2013,04,26,16,50,20.20
2013,04,26,16,51,20.10
2013,04,26,16,52,20.10
2013,04,26,16,53,20.10
2013,04,26,16,54,20.20
2013,04,26,16,55,20.20
2013,04,26,16,56,20.20
2013,04,26,16,57,20.20
2013,04,26,16,58,20.20
2013,04,26,16,59,20.10
2013,04,26,17,00,20.00
2013,04,26,17,01,19.90
2013,04,26,17,02,19.90
2013,04,26,17,03,19.90
2013,04,26,17,04,19.90
2013,04,26,17,05,20.00
2013,04,26,17,06,20.10
2013,04,26,17,07,20.10
2013,04,26,17,08,20.00
2013,04,26,17,09,19.90
2013,04,26,17,10,19.80
2013,04,26,17,11,19.80
2013,04,26,17,12,19.80
2013,04,26,17,13,19.80
2013,04,26,17,14,19.80
2013,04,26,17,15,19.80
2013,04,26,17,16,19.80
2013,04,26,17,17,19.80
2013,04,26,17,18,19.80
2013,04,26,17,19,19.70
2013,04,26,17,20,19.70
2013,04,26,17,21,19.70
2013,04,26,17,22,19.70
2013,04,26,17,23,19.80
2013,04,26,17,24,19.80
2013,04,26,17,25,19.80
2013,04,26,17,26,19.80
2013,04,26,17,27,19.90
2013,04,26,17,28,19.90
2013,04,26,17,29,19.90
2013,04,26,17,30,19.90
2013,04,26,17,31,19.80
2013,04,26,17,32,19.60
2013,04,26,17,33,19.50
2013,04,26,17,34,19.40
2013,04,26,17,35,19.40
2013,04,26,17,36,19.30
2013,04,26,17,37,19.30
2013,04,26,17,38,19.30
2013,04,26,17,39,19.20
2013,04,26,17,40,19.20